KLM836 WSSS-EHAM

Flight info

Callsign KLM836
Flight time N/A
Altitude 32000
Route AROSO3A AROSO Y513 KALIL Y501 RINBA Y503 VPL P628 ASOPO/N0505F340 P628 RK G202 ZB L750 RANAH B449 KEMOR/N0485F360 B449 MAMED B450 BIBIM A909 RODAR M11 ERLEV T923 SUBUT T916 MATAL DCT REBLO UR317 TBN UM11 CRM UL746 ODERO DCT TUVNU/N0474F380 DCT FOGRE DCT TEKVI DCT ELMEK DCT VEXIL DCT KATCE DCT AMSAN T281 NORKU
Aircraft B77W/H-SDE1E2E3FGHIJ2J3J4J5M1RWXY/LB1D1

Departure

Time 2026-05-06 16:09
Airport Singapore Changi Airport (WSSS)

Arrival

Time N/A
Airport Amsterdam Airport Schiphol (EHAM)
Time Latitude Longitude Altitude Speed Heading
2026-05-06 16:08 1.48508 103.99903 12422 ft 396 kts 344°
2026-05-06 16:09 1.51166 103.99083 13058 ft 397 kts 343°
2026-05-06 16:09 1.53814 103.98246 13626 ft 401 kts 343°
2026-05-06 16:09 1.56485 103.97391 14106 ft 405 kts 343°
2026-05-06 16:09 1.59173 103.96522 14586 ft 408 kts 343°
2026-05-06 16:10 1.61881 103.95645 15079 ft 411 kts 343°
2026-05-06 16:10 1.64577 103.94770 15560 ft 414 kts 343°
2026-05-06 16:10 1.67322 103.93880 16037 ft 417 kts 343°
2026-05-06 16:10 1.70093 103.92983 16508 ft 420 kts 343°
2026-05-06 16:11 1.72885 103.92078 16975 ft 422 kts 342°
2026-05-06 16:11 1.75549 103.90838 17238 ft 429 kts 325°
2026-05-06 16:11 1.77685 103.88747 17586 ft 433 kts 308°
2026-05-06 16:11 1.79475 103.86313 17968 ft 437 kts 307°
2026-05-06 16:12 1.81301 103.83873 18361 ft 440 kts 308°
2026-05-06 16:12 1.83161 103.81431 18761 ft 442 kts 308°
2026-05-06 16:12 1.85039 103.78991 19179 ft 444 kts 308°
2026-05-06 16:12 1.86932 103.76542 19569 ft 447 kts 309°
2026-05-06 16:13 1.88838 103.74077 19938 ft 450 kts 309°
2026-05-06 16:13 1.90756 103.71595 20300 ft 453 kts 308°
2026-05-06 16:13 1.92681 103.69097 20675 ft 455 kts 308°
2026-05-06 16:13 1.94619 103.66580 21051 ft 458 kts 308°
2026-05-06 16:14 1.96562 103.64053 21411 ft 460 kts 308°
2026-05-06 16:14 1.98516 103.61513 21769 ft 463 kts 308°
2026-05-06 16:14 2.00485 103.58953 22115 ft 465 kts 308°
2026-05-06 16:14 2.02464 103.56381 22462 ft 468 kts 308°
2026-05-06 16:15 2.04454 103.53794 22799 ft 470 kts 308°
2026-05-06 16:15 2.06455 103.51193 23122 ft 473 kts 309°
2026-05-06 16:15 2.08464 103.48581 23442 ft 476 kts 308°
2026-05-06 16:15 2.10483 103.45955 23727 ft 478 kts 308°
2026-05-06 16:16 2.12513 103.43316 23998 ft 480 kts 308°
2026-05-06 16:16 2.14473 103.40615 24238 ft 481 kts 301°
2026-05-06 16:16 2.15796 103.37542 24415 ft 484 kts 287°
2026-05-06 16:16 2.16697 103.34293 24642 ft 487 kts 285°
2026-05-06 16:17 2.17564 103.31015 24881 ft 489 kts 285°
2026-05-06 16:17 2.18449 103.27727 25149 ft 490 kts 285°
2026-05-06 16:17 2.19351 103.24485 25437 ft 491 kts 286°
2026-05-06 16:17 2.20292 103.21202 25710 ft 493 kts 287°
2026-05-06 16:18 2.21255 103.17908 25963 ft 495 kts 287°
2026-05-06 16:18 2.22230 103.14599 26205 ft 497 kts 287°
2026-05-06 16:18 2.23209 103.11283 26453 ft 498 kts 287°
2026-05-06 16:18 2.24190 103.07956 26700 ft 500 kts 287°
2026-05-06 16:19 2.25173 103.04615 26944 ft 502 kts 287°
2026-05-06 16:19 2.26156 103.01268 27183 ft 503 kts 287°
2026-05-06 16:19 2.27144 102.97903 27407 ft 505 kts 287°
2026-05-06 16:19 2.28133 102.94531 27640 ft 507 kts 287°
2026-05-06 16:20 2.29126 102.91146 27855 ft 508 kts 287°
2026-05-06 16:20 2.30122 102.87749 28073 ft 510 kts 287°
2026-05-06 16:20 2.31119 102.84338 28284 ft 511 kts 286°
2026-05-06 16:20 2.32109 102.80915 28484 ft 513 kts 286°
2026-05-06 16:21 2.33100 102.77483 28675 ft 514 kts 287°
2026-05-06 16:21 2.34101 102.74047 28860 ft 516 kts 287°
2026-05-06 16:21 2.35109 102.70603 29039 ft 517 kts 287°
2026-05-06 16:21 2.36123 102.67145 29216 ft 519 kts 287°
2026-05-06 16:22 2.37138 102.63682 29410 ft 519 kts 287°
2026-05-06 16:22 2.38151 102.60218 29660 ft 519 kts 287°
2026-05-06 16:22 2.39163 102.56759 29939 ft 517 kts 287°
2026-05-06 16:22 2.40169 102.53312 30187 ft 516 kts 287°
2026-05-06 16:23 2.41175 102.49869 30397 ft 516 kts 287°
2026-05-06 16:23 2.42180 102.46427 30623 ft 515 kts 287°
2026-05-06 16:23 2.43182 102.42993 30868 ft 514 kts 287°
2026-05-06 16:23 2.44181 102.39575 31117 ft 512 kts 287°
2026-05-06 16:24 2.45358 102.36229 31277 ft 511 kts 296°
2026-05-06 16:24 2.47132 102.33161 31418 ft 510 kts 307°
2026-05-06 16:24 2.49385 102.30427 31592 ft 509 kts 315°
2026-05-06 16:24 2.52047 102.28123 31786 ft 506 kts 324°
2026-05-06 16:25 2.57725 102.23911 31891 ft 508 kts 323°
2026-05-06 16:25 2.63281 102.19574 31892 ft 505 kts 322°
2026-05-06 16:26 2.68750 102.15258 31893 ft 503 kts 322°
2026-05-06 16:26 2.74244 102.10930 31901 ft 502 kts 322°
2026-05-06 16:27 2.79738 102.06610 31899 ft 503 kts 322°
2026-05-06 16:27 2.85244 102.02281 31895 ft 504 kts 322°
2026-05-06 16:28 2.90765 101.97940 31901 ft 505 kts 322°
2026-05-06 16:28 2.96302 101.93585 31897 ft 506 kts 322°
2026-05-06 16:29 3.01845 101.89225 31894 ft 507 kts 322°
2026-05-06 16:29 3.07395 101.84858 31898 ft 507 kts 322°
2026-05-06 16:30 3.12003 101.81231 31892 ft 507 kts 322°
2026-05-06 16:30 3.18481 101.76133 31886 ft 506 kts 322°
2026-05-06 16:31 3.24015 101.71776 31891 ft 506 kts 322°
2026-05-06 16:31 3.29544 101.67423 31891 ft 505 kts 323°
2026-05-06 16:32 3.35402 101.63591 31898 ft 503 kts 333°
2026-05-06 16:32 3.41730 101.60740 31903 ft 502 kts 337°
2026-05-06 16:33 3.48150 101.57967 31897 ft 502 kts 337°
2026-05-06 16:34 3.57751 101.53734 31897 ft 503 kts 336°
2026-05-06 16:34 3.64144 101.50894 31895 ft 503 kts 336°
2026-05-06 16:35 3.70549 101.48049 31897 ft 503 kts 336°
2026-05-06 16:35 3.76954 101.45206 31888 ft 504 kts 337°
2026-05-06 16:36 3.83359 101.42364 31897 ft 504 kts 337°
2026-05-06 16:36 3.89763 101.39519 31897 ft 504 kts 337°
2026-05-06 16:37 3.96172 101.36668 31896 ft 504 kts 337°
2026-05-06 16:37 4.02580 101.33817 31897 ft 504 kts 337°
2026-05-06 16:38 4.08987 101.30965 31885 ft 504 kts 337°
2026-05-06 16:38 4.15392 101.28114 31885 ft 504 kts 337°
2026-05-06 16:39 4.21795 101.25264 31886 ft 504 kts 337°
2026-05-06 16:39 4.28198 101.22413 31888 ft 504 kts 337°
2026-05-06 16:40 4.34608 101.19557 31890 ft 504 kts 336°
2026-05-06 16:40 4.41014 101.16704 31888 ft 504 kts 336°
2026-05-06 16:41 4.47426 101.13847 31882 ft 504 kts 336°
2026-05-06 16:41 4.53832 101.10991 31885 ft 504 kts 336°
2026-05-06 16:42 4.60246 101.08150 31886 ft 504 kts 337°
2026-05-06 16:42 4.66660 101.05397 31884 ft 505 kts 338°
2026-05-06 16:43 4.73118 101.02634 31883 ft 505 kts 338°
2026-05-06 16:43 4.79579 100.99856 31882 ft 506 kts 337°
2026-05-06 16:44 4.86045 100.97070 31880 ft 506 kts 337°
2026-05-06 16:44 4.92512 100.94282 31876 ft 506 kts 337°
2026-05-06 16:45 4.98990 100.91490 31877 ft 507 kts 337°
2026-05-06 16:45 5.05472 100.88690 31870 ft 508 kts 337°
2026-05-06 16:46 5.11958 100.85884 31873 ft 508 kts 337°
2026-05-06 16:46 5.17344 100.83553 31874 ft 508 kts 337°
2026-05-06 16:47 5.23831 100.80745 31862 ft 507 kts 337°
2026-05-06 16:47 5.30306 100.77942 31868 ft 506 kts 337°
2026-05-06 16:48 5.36532 100.74666 31861 ft 506 kts 326°
2026-05-06 16:48 5.41980 100.70210 31864 ft 506 kts 315°
2026-05-06 16:49 5.46892 100.65148 31859 ft 506 kts 314°
2026-05-06 16:49 5.51787 100.60067 31858 ft 506 kts 314°
2026-05-06 16:50 5.56714 100.55013 31856 ft 506 kts 314°
2026-05-06 16:50 5.61657 100.49974 31855 ft 507 kts 315°
2026-05-06 16:51 5.66606 100.44932 31855 ft 507 kts 315°
2026-05-06 16:51 5.71557 100.39885 31853 ft 507 kts 315°
2026-05-06 16:52 5.76502 100.34838 31857 ft 507 kts 315°
2026-05-06 16:52 5.81450 100.29788 31857 ft 507 kts 314°
2026-05-06 16:53 5.86405 100.24729 31859 ft 508 kts 314°
2026-05-06 16:53 5.91356 100.19672 31861 ft 508 kts 314°
2026-05-06 16:54 5.96306 100.14616 31862 ft 508 kts 314°
2026-05-06 16:54 6.01256 100.09558 31865 ft 508 kts 314°
2026-05-06 16:55 6.06207 100.04496 31866 ft 507 kts 314°
2026-05-06 16:55 6.11118 99.99475 31867 ft 507 kts 314°
2026-05-06 16:56 6.16056 99.94406 31862 ft 507 kts 314°
2026-05-06 16:56 6.20986 99.89333 31860 ft 507 kts 314°
2026-05-06 16:57 6.25913 99.84264 31859 ft 507 kts 314°
2026-05-06 16:57 6.30846 99.79188 31857 ft 507 kts 314°
2026-05-06 16:58 6.35193 99.73625 31858 ft 507 kts 301°
2026-05-06 16:58 6.38252 99.67257 31862 ft 507 kts 290°
2026-05-06 16:59 6.40659 99.60597 31857 ft 507 kts 289°
2026-05-06 16:59 6.43084 99.53935 31862 ft 508 kts 290°
2026-05-06 17:00 6.45562 99.47285 31863 ft 508 kts 290°
2026-05-06 17:00 6.48032 99.40679 31863 ft 508 kts 290°
2026-05-06 17:01 6.50530 99.33980 31865 ft 508 kts 290°
2026-05-06 17:01 6.52985 99.27370 31860 ft 508 kts 290°
2026-05-06 17:02 6.55449 99.20720 31866 ft 507 kts 290°
2026-05-06 17:02 6.57908 99.14081 31860 ft 506 kts 290°
2026-05-06 17:03 6.60363 99.07453 31860 ft 505 kts 290°
2026-05-06 17:03 6.62814 99.00832 31861 ft 505 kts 290°
2026-05-06 17:04 6.65263 98.94213 31856 ft 505 kts 290°
2026-05-06 17:04 6.67712 98.87593 31858 ft 505 kts 290°
2026-05-06 17:05 6.70159 98.80972 31860 ft 505 kts 290°
2026-05-06 17:05 6.72609 98.74342 31859 ft 506 kts 290°
2026-05-06 17:06 6.75061 98.67706 31857 ft 506 kts 290°
2026-05-06 17:06 6.77515 98.61059 31860 ft 507 kts 290°
2026-05-06 17:07 6.79968 98.54410 31859 ft 507 kts 290°
2026-05-06 17:07 6.82426 98.47746 31859 ft 508 kts 290°
2026-05-06 17:08 6.84885 98.41076 31857 ft 508 kts 290°
2026-05-06 17:08 6.87344 98.34404 31859 ft 509 kts 290°
2026-05-06 17:09 6.89802 98.27730 31860 ft 509 kts 290°
2026-05-06 17:09 6.92257 98.21059 31859 ft 508 kts 290°
2026-05-06 17:10 6.94709 98.14395 31860 ft 507 kts 290°
2026-05-06 17:10 6.97158 98.07734 31858 ft 507 kts 290°
2026-05-06 17:11 7.00120 98.01349 31854 ft 504 kts 305°
2026-05-06 17:11 7.04860 97.96192 31859 ft 502 kts 323°
2026-05-06 17:12 7.10523 97.92071 31857 ft 503 kts 325°
2026-05-06 17:12 7.16235 97.87962 31863 ft 505 kts 324°
2026-05-06 17:13 7.21928 97.83784 31860 ft 507 kts 324°
2026-05-06 17:13 7.27614 97.79569 31856 ft 508 kts 324°
2026-05-06 17:14 7.33297 97.75350 31859 ft 507 kts 324°
2026-05-06 17:14 7.38977 97.71138 31858 ft 507 kts 324°
2026-05-06 17:15 7.44648 97.66932 31855 ft 506 kts 324°
2026-05-06 17:15 7.50314 97.62730 31855 ft 505 kts 324°
2026-05-06 17:16 7.55968 97.58533 31854 ft 505 kts 324°
2026-05-06 17:16 7.61582 97.54366 31857 ft 505 kts 324°
2026-05-06 17:17 7.67238 97.50168 31857 ft 505 kts 324°
2026-05-06 17:17 7.72896 97.45984 31858 ft 505 kts 324°
2026-05-06 17:18 7.78563 97.41791 31860 ft 505 kts 324°
2026-05-06 17:18 7.84225 97.37598 31855 ft 505 kts 324°
2026-05-06 17:19 7.89886 97.33402 31854 ft 505 kts 324°
2026-05-06 17:19 7.95547 97.29205 31856 ft 505 kts 324°
2026-05-06 17:20 8.01210 97.25002 31857 ft 505 kts 323°
2026-05-06 17:20 8.06300 97.20118 31863 ft 507 kts 311°
2026-05-06 17:21 8.10350 97.14298 31864 ft 508 kts 302°
2026-05-06 17:21 8.13965 97.08169 31855 ft 509 kts 301°
2026-05-06 17:22 8.17591 97.02029 31853 ft 510 kts 301°
2026-05-06 17:22 8.21255 96.95900 31856 ft 510 kts 302°
2026-05-06 17:23 8.24940 96.89772 31854 ft 511 kts 302°
2026-05-06 17:23 8.28625 96.83645 31855 ft 511 kts 302°
2026-05-06 17:24 8.32309 96.77511 31855 ft 510 kts 302°
2026-05-06 17:24 8.35983 96.71388 31857 ft 510 kts 302°
2026-05-06 17:25 8.39631 96.65304 31855 ft 510 kts 302°
2026-05-06 17:25 8.43301 96.59182 31854 ft 509 kts 302°
2026-05-06 17:26 8.46967 96.53064 31853 ft 509 kts 302°
2026-05-06 17:26 8.50632 96.46946 31851 ft 509 kts 302°
2026-05-06 17:27 8.54294 96.40830 31851 ft 509 kts 302°
2026-05-06 17:27 8.57956 96.34710 31850 ft 509 kts 302°
2026-05-06 17:28 8.61616 96.28591 31849 ft 509 kts 302°
2026-05-06 17:28 8.65274 96.22473 31851 ft 509 kts 302°
2026-05-06 17:29 8.68933 96.16350 31851 ft 509 kts 302°
2026-05-06 17:29 8.72594 96.10220 31849 ft 509 kts 302°
2026-05-06 17:30 8.76252 96.04091 31850 ft 509 kts 302°
2026-05-06 17:30 8.79909 95.97961 31849 ft 509 kts 302°
2026-05-06 17:31 8.83563 95.91826 31850 ft 509 kts 302°
2026-05-06 17:31 8.87213 95.85694 31849 ft 509 kts 302°
2026-05-06 17:32 8.90861 95.79562 31850 ft 509 kts 302°
2026-05-06 17:32 8.94483 95.73470 31849 ft 509 kts 301°
2026-05-06 17:33 8.98125 95.67340 31843 ft 508 kts 301°
2026-05-06 17:33 9.01764 95.61215 31845 ft 508 kts 301°
2026-05-06 17:34 9.05405 95.55085 31843 ft 508 kts 301°
2026-05-06 17:34 9.08451 95.49952 31844 ft 508 kts 301°
2026-05-06 17:35 9.12675 95.42831 31846 ft 508 kts 301°
2026-05-06 17:35 9.15695 95.37738 31843 ft 508 kts 301°
2026-05-06 17:36 9.21141 95.28546 31843 ft 508 kts 301°
2026-05-06 17:36 9.24771 95.22418 31847 ft 507 kts 301°
2026-05-06 17:37 9.28399 95.16290 31846 ft 507 kts 301°
2026-05-06 17:37 9.32024 95.10161 31847 ft 507 kts 301°
2026-05-06 17:38 9.35648 95.04033 31847 ft 507 kts 301°
2026-05-06 17:38 9.39270 94.97905 31846 ft 507 kts 301°
2026-05-06 17:39 9.42888 94.91781 31848 ft 507 kts 301°
2026-05-06 17:39 9.46504 94.85657 31846 ft 507 kts 301°
2026-05-06 17:40 9.50119 94.79530 31847 ft 507 kts 301°
2026-05-06 17:40 9.53732 94.73405 31847 ft 506 kts 301°
2026-05-06 17:41 9.57343 94.67279 31849 ft 506 kts 301°
2026-05-06 17:41 9.60953 94.61152 31849 ft 506 kts 301°
2026-05-06 17:42 9.64559 94.55029 31848 ft 506 kts 301°
2026-05-06 17:42 9.68164 94.48903 31850 ft 506 kts 301°
2026-05-06 17:43 9.72018 94.42942 31847 ft 505 kts 309°
2026-05-06 17:43 9.76822 94.37755 31851 ft 505 kts 320°
2026-05-06 17:44 9.82181 94.33170 31858 ft 504 kts 321°
2026-05-06 17:44 9.87572 94.28611 31848 ft 505 kts 320°
2026-05-06 17:45 9.92944 94.24020 31851 ft 505 kts 320°
2026-05-06 17:45 9.98306 94.19402 31853 ft 505 kts 320°
2026-05-06 17:46 10.03662 94.14779 31852 ft 506 kts 320°
2026-05-06 17:46 10.09020 94.10154 31851 ft 506 kts 320°
2026-05-06 17:47 10.14378 94.05529 31854 ft 506 kts 320°
2026-05-06 17:47 10.19738 94.00902 31856 ft 506 kts 320°
2026-05-06 17:48 10.25100 93.96269 31854 ft 506 kts 320°
2026-05-06 17:48 10.30461 93.91636 31855 ft 506 kts 320°
2026-05-06 17:49 10.35824 93.86998 31854 ft 506 kts 320°
2026-05-06 17:49 10.41186 93.82360 31858 ft 506 kts 320°
2026-05-06 17:50 10.46547 93.77719 31857 ft 506 kts 320°
2026-05-06 17:50 10.51905 93.73080 31858 ft 506 kts 320°
2026-05-06 17:51 10.57267 93.68436 31857 ft 506 kts 320°
2026-05-06 17:51 10.62587 93.63825 31856 ft 506 kts 320°
2026-05-06 17:52 10.67945 93.59178 31863 ft 506 kts 320°
2026-05-06 17:52 10.73306 93.54527 31859 ft 507 kts 320°
2026-05-06 17:53 10.78672 93.49870 31861 ft 507 kts 320°
2026-05-06 17:53 10.84035 93.45212 31860 ft 507 kts 320°
2026-05-06 17:54 10.89405 93.40548 31860 ft 508 kts 320°
2026-05-06 17:54 10.94773 93.35881 31858 ft 508 kts 320°
2026-05-06 17:55 11.00144 93.31210 31857 ft 508 kts 320°
2026-05-06 17:55 11.05518 93.26534 31855 ft 508 kts 320°
2026-05-06 17:56 11.10892 93.21855 31858 ft 508 kts 320°
2026-05-06 17:56 11.16264 93.17177 31861 ft 508 kts 320°
2026-05-06 17:57 11.21641 93.12491 31860 ft 509 kts 320°
2026-05-06 17:57 11.27020 93.07801 31863 ft 509 kts 320°
2026-05-06 17:58 11.32399 93.03109 31863 ft 509 kts 320°
2026-05-06 17:58 11.37782 92.98410 31865 ft 510 kts 320°
2026-05-06 17:59 11.43167 92.93708 31872 ft 510 kts 320°
2026-05-06 17:59 11.48557 92.88998 31876 ft 510 kts 320°
2026-05-06 18:00 11.53948 92.84285 31882 ft 511 kts 320°
2026-05-06 18:00 11.59339 92.79569 31886 ft 511 kts 320°
2026-05-06 18:01 11.64719 92.74836 31885 ft 511 kts 318°
2026-05-06 18:01 11.69677 92.69636 31891 ft 511 kts 313°
2026-05-06 18:02 11.74498 92.64294 31885 ft 512 kts 313°
2026-05-06 18:02 11.79334 92.58951 31883 ft 513 kts 313°
2026-05-06 18:03 11.84194 92.53622 31872 ft 513 kts 314°
2026-05-06 18:03 11.89065 92.48296 31872 ft 513 kts 314°
2026-05-06 18:04 11.93930 92.42976 31870 ft 512 kts 314°
2026-05-06 18:04 11.98789 92.37656 31869 ft 512 kts 314°
2026-05-06 18:05 12.03609 92.32374 31869 ft 511 kts 314°
2026-05-06 18:05 12.08459 92.27056 31868 ft 511 kts 314°
2026-05-06 18:06 12.13299 92.21745 31867 ft 511 kts 313°
2026-05-06 18:06 12.18142 92.16430 31870 ft 510 kts 313°
2026-05-06 18:07 12.22982 92.11114 31867 ft 510 kts 313°
2026-05-06 18:07 12.27814 92.05804 31868 ft 510 kts 313°
2026-05-06 18:08 12.32648 92.00488 31869 ft 510 kts 313°
2026-05-06 18:08 12.37480 91.95172 31869 ft 510 kts 313°
2026-05-06 18:09 12.42310 91.89854 31867 ft 511 kts 313°
2026-05-06 18:09 12.47150 91.84523 31870 ft 511 kts 313°
2026-05-06 18:10 12.51984 91.79195 31869 ft 511 kts 313°
2026-05-06 18:10 12.56822 91.73860 31869 ft 511 kts 313°
2026-05-06 18:11 12.60843 91.69423 31867 ft 512 kts 313°
2026-05-06 18:11 12.66502 91.63175 31869 ft 512 kts 313°
2026-05-06 18:12 12.71342 91.57827 31867 ft 512 kts 313°
2026-05-06 18:12 12.76184 91.52475 31866 ft 512 kts 313°
2026-05-06 18:13 12.81022 91.47123 31866 ft 512 kts 313°
2026-05-06 18:13 12.85860 91.41769 31864 ft 512 kts 312°
2026-05-06 18:14 12.90695 91.36414 31866 ft 512 kts 312°
2026-05-06 18:14 12.95529 91.31057 31866 ft 512 kts 312°
2026-05-06 18:15 13.00359 91.25701 31866 ft 511 kts 312°
2026-05-06 18:15 13.05157 91.20378 31864 ft 511 kts 312°
2026-05-06 18:16 13.09984 91.15019 31866 ft 511 kts 312°
2026-05-06 18:16 13.14806 91.09662 31862 ft 511 kts 312°
2026-05-06 18:17 13.19626 91.04305 31865 ft 511 kts 312°
2026-05-06 18:17 13.24442 90.98948 31863 ft 511 kts 312°
2026-05-06 18:18 13.29256 90.93590 31860 ft 511 kts 312°
2026-05-06 18:18 13.34071 90.88228 31861 ft 511 kts 312°
2026-05-06 18:19 13.38884 90.82863 31862 ft 511 kts 312°
2026-05-06 18:19 13.42883 90.78404 31859 ft 511 kts 311°
2026-05-06 18:20 13.47697 90.73034 31861 ft 511 kts 311°
2026-05-06 18:20 13.52510 90.67661 31862 ft 511 kts 311°
2026-05-06 18:21 13.57318 90.62289 31860 ft 511 kts 311°
2026-05-06 18:21 13.62906 90.56043 31861 ft 510 kts 311°
2026-05-06 18:22 13.66930 90.51541 31856 ft 510 kts 311°
2026-05-06 18:22 13.71728 90.46170 31859 ft 510 kts 311°
2026-05-06 18:23 13.76490 90.40836 31857 ft 510 kts 311°
2026-05-06 18:23 13.81286 90.35462 31860 ft 509 kts 311°
2026-05-06 18:24 13.86077 90.30089 31854 ft 509 kts 311°
2026-05-06 18:24 13.90866 90.24714 31854 ft 509 kts 311°
2026-05-06 18:25 13.95655 90.19337 31856 ft 509 kts 311°
2026-05-06 18:25 14.00443 90.13956 31857 ft 510 kts 311°
2026-05-06 18:26 14.05230 90.08573 31856 ft 510 kts 311°
2026-05-06 18:26 14.10016 90.03187 31840 ft 510 kts 311°
2026-05-06 18:27 14.14771 89.97834 31857 ft 510 kts 311°
2026-05-06 18:27 14.19585 89.92410 31855 ft 510 kts 311°
2026-05-06 18:28 14.24339 89.87050 31856 ft 510 kts 311°
2026-05-06 18:28 14.29153 89.81618 31858 ft 509 kts 311°
2026-05-06 18:29 14.33899 89.76260 31843 ft 509 kts 311°
2026-05-06 18:29 14.38704 89.70831 31834 ft 509 kts 311°
2026-05-06 18:30 14.43440 89.65478 31850 ft 508 kts 311°
2026-05-06 18:30 14.48202 89.60090 31854 ft 508 kts 310°
2026-05-06 18:31 14.52957 89.54706 31851 ft 507 kts 310°
2026-05-06 18:31 14.57708 89.49324 31838 ft 507 kts 310°
2026-05-06 18:32 14.62451 89.43945 31840 ft 506 kts 310°
2026-05-06 18:32 14.67192 89.38565 31854 ft 506 kts 310°
2026-05-06 18:33 14.71929 89.33188 31856 ft 506 kts 310°
2026-05-06 18:33 14.76716 89.27858 31841 ft 506 kts 312°
2026-05-06 18:34 14.81636 89.22658 31837 ft 506 kts 313°
2026-05-06 18:34 14.86571 89.17467 31847 ft 506 kts 312°
2026-05-06 18:35 14.91481 89.12258 31853 ft 506 kts 312°
2026-05-06 18:35 14.96374 89.07037 31837 ft 505 kts 312°